Meteopurmerend
purmerend
Purmerend - Baaienwijk



My webcam  My webcam


Onweer radar Meer informatie blitzortung!


Regen radar Meer informatie rain snow radar


Bezoek onze andere website:

CandyAppleRed WebdesignWebdesign Purmerend Candy Apple Red

MeteopurmerendBlog

Template documentation
and downloads



We konden geen weer-waarchuwingen ophalen. Ga rechtstreeks naar de Meteoalarm site : www.meteoalarm.eu en controleer daar .

15 daagse weersverwachting Orléans (FR)

  • Overzicht
  • Per uur
  • 15 dagen
  • Extra
  • Vergelijk
  • Kaarten
  • Dagkaart
  • Meer »
  • Info
  • Statistieken
  • Directe link
    Temp 6h Neerslag Wind  
 06:48     21:07    Daglengte: 14:19 Vandaag
20:00
22°
 
2
 06:49     21:05    Daglengte: 14:16 Morgen
02:00
18°
 
3
08:00
17°
0.7 mm
3
14:00
24°
2.3 mm
5
20:00
24°
 
4
 06:51     21:03    Daglengte: 14:12 Dinsdag 16 Aug
02:00
19°
 
2
08:00
18°
 
2
14:00
24°
 
2
20:00
22°
2.1 mm
2
 06:52     21:01    Daglengte: 14:09 Woensdag 17 Aug
02:00
18°
4.6 mm
1
08:00
17°
7.0 mm
2
14:00
24°
1.5 mm
2
Locatie info
Region: Centre-Val de Loire
Latitude: 47.9014°N
Longitude: 1.9050°E
115 masl
Postcode: 45000
Temp/Neerslag /Baro Onweer/Dauwpunt
    Temp Baro 1h Neerslag Dauwpunt Wind UV Bewolking  
 06:48     21:07    Daglengte: 14:19 Vandaag
20:00
22°
1006.7 hPa
49%
17.5°
2
Windvlaag: 5.5 m/s
73%
21:00
21°
1006.8 hPa
19%
17.8°
2
Windvlaag: 4.8 m/s
72%
22:00
20°
1007.1 hPa
23%
17.6°
3
Windvlaag: 1.3 m/s
47%
23:00
20°
1006.9 hPa
56%
17.3°
2
Windvlaag: 4.2 m/s
45%
 06:49     21:05    Daglengte: 14:16 Morgen
00:00
19°
1006.7 hPa
14%
17.1°
3
Windvlaag: 4.2 m/s
65%
01:00
18°
1006.6 hPa
18%
16.9°
3
Windvlaag: 5.3 m/s
81%
02:00
18°
1006.4 hPa
16%
16.3°
3
Windvlaag: 6.3 m/s
80%
03:00
18°
1006.4 hPa
22%
15.5°
3
Windvlaag: 6.3 m/s
17%
04:00
18°
1006.2 hPa
22%
15.5°
3
Windvlaag: 5.9 m/s
50%
05:00
18°
1006.0 hPa
14%
15.5°
4
Windvlaag: 6.5 m/s
56%
06:00
17°
1005.0 hPa
17%
15.9°
4
Windvlaag: 7.4 m/s
59%
07:00
17°
1004.8 hPa
35%
16.1°
4
Windvlaag: 6 m/s
60%
08:00
17°
1004.8 hPa 0.7 mm
82%
16.3°
3
Windvlaag: 4.5 m/s
86%
09:00
18°
1005.1 hPa 0.7 mm
82%
16.5°
4
Windvlaag: 1.7 m/s
84%
10:00
18°
1005.6 hPa
82%
16.5°
5
Windvlaag: 0.1 m/s
68%
11:00
19°
1005.9 hPa 0.6 mm
82%
16.8°
4
Windvlaag: -0.1 m/s
60%
12:00
20°
1006.1 hPa 0.9 mm
82%
16.2°
5
Windvlaag: 4 m/s
19%
13:00
22°
1006.1 hPa
82%
15.1°
5
Windvlaag: 4.2 m/s
32%
14:00
24°
1005.7 hPa
74%
14.4°
5
Windvlaag: 3.3 m/s
45%
15:00
25°
1005.5 hPa
25%
15.6°
5
Windvlaag: 2.8 m/s
43%
16:00
24°
1005.2 hPa
16%
17.9°
5
Windvlaag: 2 m/s
45%
17:00
24°
1005.2 hPa
61%
17.5°
5
Windvlaag: 1.8 m/s
62%
18:00
24°
1005.3 hPa
66%
16.7°
5
Windvlaag: 2.3 m/s
18%
19:00
25°
1005.1 hPa
72%
15.8°
4
Windvlaag: 2.5 m/s
18%
20:00
24°
1005.4 hPa
32%
15.9°
4
Windvlaag: 2.6 m/s
53%
21:00
23°
1005.9 hPa
22%
16.0°
3
Windvlaag: 3.1 m/s
23%
22:00
22°
1006.6 hPa
14%
16.5°
2
Windvlaag: 3 m/s
19%
23:00
21°
1007.0 hPa
14%
16.4°
2
Windvlaag: 2.7 m/s
49%
 06:51     21:03    Daglengte: 14:12 Dinsdag 16 Aug
00:00
20°
1007.4 hPa
14%
16.4°
2
Windvlaag: 3.4 m/s
22%
01:00
19°
1007.5 hPa
14%
16.9°
2
Windvlaag: 3.8 m/s
19%
02:00
19°
1007.5 hPa
14%
16.5°
2
Windvlaag: 3.4 m/s
18%
03:00
18°
1007.5 hPa
14%
16.6°
2
Windvlaag: 3.1 m/s
49%
04:00
18°
1007.4 hPa
14%
16.1°
2
Windvlaag: 2.8 m/s
22%
05:00
18°
1007.4 hPa
14%
15.5°
2
Windvlaag: 3.4 m/s
64%
06:00
18°
1007.3 hPa
14%
15.0°
2
Windvlaag: 3.6 m/s
35%
07:00
18°
1007.4 hPa
14%
14.8°
2
Windvlaag: 3.4 m/s
72%
08:00
18°
1007.7 hPa
14%
15.2°
2
Windvlaag: 3.5 m/s
78%
09:00
19°
1008.1 hPa
14%
14.9°
2
Windvlaag: 3.2 m/s
82%
10:00
20°
1008.0 hPa
14%
14.8°
2
Windvlaag: 2.9 m/s
78%
11:00
21°
1008.1 hPa
63%
13.5°
2
Windvlaag: 0.8 m/s
81%
12:00
22°
1008.3 hPa
77%
12.4°
2
Windvlaag: 1.3 m/s
81%
13:00
23°
1008.1 hPa
24%
11.5°
2
Windvlaag: 0.9 m/s
85%
14:00
24°
1008.3 hPa
14%
12.8°
2
Windvlaag: 1.9 m/s
79%
15:00
24°
1008.1 hPa
15%
17.1°
2
Windvlaag: 1.6 m/s
82%
16:00
25°
1007.9 hPa
71%
10.2°
2
Windvlaag: 1.2 m/s
82%
17:00
23°
1008.0 hPa 1.0 mm
100%
7.1°
2
Windvlaag: 1.2 m/s
97%
18:00
23°
1007.8 hPa 1.1 mm
100%
8.4°
3
Windvlaag: 3.6 m/s
86%
19:00
22°
1007.6 hPa
92%
11.0°
2
Windvlaag: 1.9 m/s
73%
20:00
22°
1007.5 hPa
22%
13.1°
2
Windvlaag: 1.5 m/s
76%
21:00
20°
1007.7 hPa
21%
15.3°
1
Windvlaag: 1.5 m/s
88%
22:00
20°
1008.3 hPa
26%
14.6°
2
Windvlaag: 1.5 m/s
77%
23:00
19°
1008.5 hPa 1.1 mm
91%
15.2°
2
Windvlaag: 3.1 m/s
89%
 06:52     21:01    Daglengte: 14:09 Woensdag 17 Aug
00:00
19°
1008.6 hPa 1.2 mm
93%
15.8°
1
Windvlaag: 3.2 m/s
85%
01:00
18°
1008.8 hPa 1.3 mm
95%
15.9°
2
Windvlaag: 2.9 m/s
89% warningclass
02:00
18°
1008.6 hPa 1.0 mm
99%
15.7°
1
Windvlaag: 1.5 m/s
77%
03:00
18°
1008.4 hPa 1.0 mm
97%
16.2°
1
Windvlaag: 2 m/s
98%
04:00
17°
1008.2 hPa 1.3 mm
100%
16.3°
2
Windvlaag: -0.1 m/s
90%
05:00
17°
1008.1 hPa 1.3 mm
100%
16.8°
1
Windvlaag: 1.2 m/s
99%
06:00
17°
1008.0 hPa 0.9 mm
100%
17.2°
1
Windvlaag: 2 m/s
90%
07:00
17°
1008.4 hPa 1.5 mm
100%
17.0°
2
Windvlaag: 2.1 m/s
80%
08:00
17°
1008.8 hPa 1.0 mm
80%
16.8°
2
Windvlaag: 3.2 m/s
50%
09:00
18°
1009.3 hPa
22%
15.3°
2
Windvlaag: 3.7 m/s
68%
10:00
19°
1009.4 hPa
22%
16.2°
1
Windvlaag: 4.2 m/s
29%
11:00
20°
1009.4 hPa 1.5 mm
21%
16.4°
2
Windvlaag: 6.4 m/s
35%
12:00
21°
1009.3 hPa
21%
20.6°
3
Windvlaag: 5.3 m/s
20%
13:00
22°
1009.4 hPa
82%
20.6°
2
Windvlaag: 4.8 m/s
44%
14:00
24°
1009.4 hPa
100%
18.4°
2
Windvlaag: 3.5 m/s
20%
15:00
24°
1009.5 hPa
100%
18.1°
2
Windvlaag: 4.1 m/s
20%
16:00
25°
1009.2 hPa
90%
18.3°
2
Windvlaag: 5.3 m/s
19%
17:00
25°
1008.9 hPa
93%
16.0°
1
Windvlaag: 7.1 m/s
25%
18:00
25°
1008.7 hPa
45%
13.5°
1
Windvlaag: 7.5 m/s
41%
19:00
23°
1008.9 hPa
89%
19.8°
1
Windvlaag: 5.4 m/s
54%
Temp/Neerslag /Baro Onweer/Dauwpunt
    Temp Baro Neerslag Dauwpunt Wind Bewolking  
 06:48     21:07    Daglengte: 14:19 Vandaag
20:00
22°
1006.7 hPa   17.5°
2
73%
23:00
20°
1006.9 hPa   17.3°
2
45%
 06:49     21:05    Daglengte: 14:16 Morgen
02:00
18°
1006.4 hPa   16.3°
3
80%
05:00
18°
1006.0 hPa   15.5°
4
56%
08:00
17°
1004.8 hPa 0.7 mm 16.3°
3
86%
11:00
19°
1005.9 hPa 1.4 mm 16.8°
4
60%
14:00
24°
1005.7 hPa 0.9 mm 14.4°
5
45%
17:00
24°
1005.2 hPa   17.5°
5
62%
20:00
24°
1005.4 hPa   15.9°
4
53%
23:00
21°
1007.0 hPa   16.4°
2
49%
 06:51     21:03    Daglengte: 14:12 Dinsdag 16 Aug
02:00
19°
1007.5 hPa   16.5°
2
18%
05:00
18°
1007.4 hPa   15.5°
2
64%
08:00
18°
1007.7 hPa   15.2°
2
78%
11:00
21°
1008.1 hPa   13.5°
2
81%
14:00
24°
1008.3 hPa   12.8°
2
79%
17:00
23°
1008.0 hPa 1.0 mm 7.1°
2
97%
20:00
22°
1007.5 hPa 1.1 mm 13.1°
2
76%
23:00
19°
1008.5 hPa 1.1 mm 15.2°
2
89%
 06:52     21:01    Daglengte: 14:09 Woensdag 17 Aug
02:00
18°
1008.6 hPa 3.5 mm 15.7°
1
77%
05:00
17°
1008.1 hPa 3.7 mm 16.8°
1
99%
08:00
17°
1008.8 hPa 3.4 mm 16.8°
2
50%
11:00
20°
1009.4 hPa 1.5 mm 16.4°
2
35%
14:00
24°
1009.4 hPa   18.4°
2
20%
17:00
25°
1008.9 hPa   16.0°
1
25%
20:00
23°
1009.5 hPa   17.3°
2
58%
23:00
17°
1011.8 hPa 19.6 mm 15.1°
2
0%
 06:53     21:00    Daglengte: 14:07 Donderdag 18 Aug
02:00
16°
1012.0 hPa 19.7 mm 14.4°
1
0%
05:00
15°
1012.4 hPa 20.2 mm 14.3°
1
1%
08:00
16°
1013.3 hPa 20.3 mm 14.2°
1
1%
11:00
21°
1014.3 hPa 20.4 mm 14.5°
2
1%
14:00
25°
1013.7 hPa 22.5 mm 15.1°
2
1%
17:00
25°
1013.7 hPa 22.8 mm 11.9°
3
1%
20:00
22°
1014.4 hPa 22.8 mm 14.9°
3
1%
23:00
20°
1016.4 hPa 22.8 mm 14.6°
3
1%
 06:55     20:58    Daglengte: 14:03 Vrijdag 19 Aug
02:00
17°
1017.8 hPa 22.8 mm 14.9°
3
1%
05:00
15°
1018.6 hPa 22.8 mm 14.2°
3
1%
08:00
16°
1019.5 hPa 22.8 mm 13.9°
2
0%
11:00
21°
1020.0 hPa 22.8 mm 12.7°
2
0%
14:00
25°
1019.2 hPa 22.8 mm 10.8°
3
0%
17:00
27°
Voelt als: 26.9°
1018.1 hPa 22.8 mm 10.5°
3
0%
20:00
25°
1017.8 hPa 22.8 mm 11.0°
3
0%
23:00
19°
1019.3 hPa 23.0 mm 16.2°
2
1%
 06:56     20:56    Daglengte: 14:00 Zaterdag 20 Aug
02:00
18°
1019.4 hPa 23.0 mm 16.5°
2
1%
05:00
17°
1019.8 hPa 23.0 mm 15.6°
2
1%
08:00
17°
1020.7 hPa 23.1 mm 14.2°
2
0%
11:00
22°
1021.3 hPa 23.1 mm 11.7°
4
1%
14:00
24°
1021.0 hPa 23.1 mm 8.9°
4
0%
20:00
24°
1020.0 hPa 23.1 mm 9.2°
3
1%
23:00
19°
1022.6 hPa 23.1 mm 10.6°
4
1%
 06:57     20:54    Daglengte: 13:57 Zondag 21 Aug
02:00
15°
1023.1 hPa 23.1 mm 8.8°
2
1%
05:00
13°
1023.5 hPa 23.1 mm 10.3°
2
0%
08:00
14°
1024.0 hPa 23.1 mm 11.1°
2
0%
11:00
20°
1024.1 hPa 23.1 mm 9.3°
3
0%
14:00
24°
1022.8 hPa 23.1 mm 5.2°
4
0%
17:00
25°
1021.7 hPa 23.1 mm 4.4°
4
0%
20:00
23°
1021.6 hPa 46.3 mm 6.0°
4
1%
 06:59     20:52    Daglengte: 13:53 Maandag 22 Aug
02:00
16°
1022.7 hPa 46.3 mm 6.1°
2
1%
08:00
15°
1022.3 hPa 46.3 mm 7.1°
0
1%
14:00
24°
1020.6 hPa 46.3 mm 9.3°
2
1%
20:00
24°
1018.6 hPa 46.3 mm 10.4°
1
1%
 07:00     20:50    Daglengte: 13:50 Dinsdag 23 Aug
02:00
18°
1018.6 hPa 46.3 mm 9.9°
1
1%
08:00
18°
1018.4 hPa 46.3 mm 9.5°
1
1%
14:00
27°
Voelt als: 26.5°
1017.5 hPa 46.3 mm 10.7°
4
1%
20:00
23°
1018.0 hPa 46.3 mm 16.4°
3
1%
 07:01     20:48    Daglengte: 13:47 Woensdag 24 Aug
02:00
17°
1020.2 hPa 46.3 mm 12.7°
3
0%
08:00
16°
1021.2 hPa 46.3 mm 14.3°
2
0%
14:00
29°
Voelt als: 28.2°
1015.9 hPa   11.2°
1
24%
20:00
27°
Voelt als: 26.9°
1014.9 hPa 0.1 mm 11.2°
1
34%
 07:03     20:47    Daglengte: 13:44 Donderdag 25 Aug
02:00
20°
1016.4 hPa 0.2 mm 11.2°
1
32%
08:00
18°
1016.8 hPa   11.2°
1
31%
14:00
30°
Voelt als: 29.1°
1016.1 hPa 0.1 mm 10.8°
1
31%
20:00
28°
Voelt als: 27.4°
1015.2 hPa 0.2 mm 11.4°
1
39%
 07:04     20:45    Daglengte: 13:41 Vrijdag 26 Aug
02:00
20°
1016.9 hPa 0.3 mm 12.3°
2
43%
08:00
18°
1017.4 hPa 0.2 mm 12.8°
2
36%
14:00
29°
Voelt als: 28.5°
1016.8 hPa 0.7 mm 12.6°
1
37%
20:00
27°
Voelt als: 27.1°
1015.2 hPa 0.3 mm 11.8°
1
47%
 07:05     20:43    Daglengte: 13:38 Zaterdag 27 Aug
02:00
20°
1016.8 hPa 0.7 mm 12.0°
2
37%
08:00
17°
1017.0 hPa 0.3 mm 12.6°
2
43%
14:00
27°
Voelt als: 27.2°
1016.5 hPa 0.2 mm 12.6°
2
41%
20:00
26°
1015.3 hPa 0.2 mm 11.9°
2
47%
 07:07     20:41    Daglengte: 13:34 Zondag 28 Aug
02:00
19°
1017.0 hPa 0.4 mm 12.1°
2
34%
08:00
16°
1017.2 hPa 0.1 mm 12.3°
2
31%
14:00
28°
Voelt als: 27.1°
1016.8 hPa 0.1 mm 11.5°
1
41%
20:00
25°
1015.6 hPa 0.3 mm 11.9°
2
53%
 07:08     20:39    Daglengte: 13:31 Maandag 29 Aug
02:00
18°
1017.4 hPa 0.6 mm 11.8°
2
36%
08:00
16°
1017.6 hPa 0.3 mm 12.8°
1
46%
14:00
27°
Voelt als: 27.0°
1017.1 hPa 0.1 mm 12.1°
2
50%
20:00
25°
1015.9 hPa 0.4 mm 11.6°
2
44%
  CAPE Lifted Index Hail Supercell Tornado SRH 3km CL BTM PRES CL TOP PRES Swiss DWD icon SMHI TS
 06:48     21:07    Daglengte: 14:19 Vandaag
20:00 1270 J/kg -5.4 K 0 % 0 % 0 % 0 m²/s² 0 0 -2.64 80
21:00 1387 J/kg -6.0 K 0 % 0 % 0 % 0 m²/s² 0 0 -3.63 3
22:00 1370 J/kg -5.8 K 0 % 0 % 0 % 0 m²/s² 0 0 -3.76 3
23:00 1530 J/kg -6.2 K 0 % 0 % 0 % 0 m²/s² 0 0 -4.04 3
 06:49     21:05    Daglengte: 14:16 Morgen
00:00 1101 J/kg -5.2 K 0 % 0 % 0 % 0 m²/s² 0 0 -3.22 3
01:00 602 J/kg -5.0 K 0 % 0 % 0 % 0 m²/s² 0 0 -3.23 3
02:00 18 J/kg -4.8 K 0 % 0 % 0 % 0 m²/s² 0 0 -3.27 3
03:00 0 J/kg -4.2 K 0 % 0 % 0 % 0 m²/s² 0 0 -2.94 2
04:00 0 J/kg -3.7 K 0 % 0 % 0 % 0 m²/s² 0 0 -2.65 2
05:00 0 J/kg -3.2 K 0 % 0 % 0 % 0 m²/s² 0 0 -1.88 3
06:00 0 J/kg -2.0 K 0 % 0 % 0 % 0 m²/s² 0 0 -0.59 3
07:00 0 J/kg 0.6 K 0 % 0 % 0 % 0 m²/s² 0 0 2.55 3
08:00 0 J/kg 0.5 K 0 % 0 % 0 % 0 m²/s² 0 0 2.84 3
09:00 0 J/kg 0.8 K 0 % 0 % 0 % 0 m²/s² 0 0 3.53 80
10:00 79 J/kg 0.1 K 0 % 0 % 0 % 0 m²/s² 0 0 2.83 80
11:00 149 J/kg -0.5 K 0 % 0 % 0 % 0 m²/s² 0 0 2.41 80
12:00 219 J/kg -0.8 K 0 % 0 % 0 % 0 m²/s² 0 0 2.2 80
13:00 133 J/kg -0.5 K 0 % 0 % 0 % 0 m²/s² 0 0 2.41 3
14:00 100 J/kg -0.1 K 0 % 0 % 0 % 0 m²/s² 0 0 2 3
15:00 78 J/kg -0.3 K 0 % 0 % 0 % 0 m²/s² 0 0 1.86 3
16:00 253 J/kg -1.5 K 0 % 0 % 0 % 0 m²/s² 0 0 0.96 3
17:00 205 J/kg -1.1 K 0 % 0 % 0 % 0 m²/s² 0 0 0.94 3
18:00 173 J/kg -0.8 K 0 % 0 % 0 % 0 m²/s² 0 0 0.58 2
19:00 117 J/kg -0.3 K 0 % 0 % 0 % 0 m²/s² 0 0 0.69 2
20:00 87 J/kg 0.0 K 0 % 0 % 0 % 0 m²/s² 0 0 0.9 3
21:00 86 J/kg -0.6 K 0 % 0 % 0 % 0 m²/s² 0 0 0.06 2
22:00 78 J/kg -0.7 K 0 % 0 % 0 % 0 m²/s² 0 0 0.26 1
23:00 100 J/kg -1.1 K 0 % 0 % 0 % 0 m²/s² 0 0 0.22 2
 06:51     21:03    Daglengte: 14:12 Dinsdag 16 Aug
00:00 88 J/kg -0.9 K 0 % 0 % 0 % 0 m²/s² 0 0 0.6 1
01:00 0 J/kg 0.0 K 0 % 0 % 0 % 0 m²/s² 0 0 1.77 2
02:00 0 J/kg 0.2 K 0 % 0 % 0 % 0 m²/s² 0 0 2.24 2
03:00 0 J/kg 0.2 K 0 % 0 % 0 % 0 m²/s² 0 0 3.29 2
04:00 0 J/kg 0.2 K 0 % 0 % 0 % 0 m²/s² 0 0 3.38 2
05:00 0 J/kg 0.3 K 0 % 0 % 0 % 0 m²/s² 0 0 2.82 3
06:00 0 J/kg 1.3 K 0 % 0 % 0 % 0 m²/s² 0 0 3.46 2
07:00 0 J/kg 1.2 K 0 % 0 % 0 % 0 m²/s² 0 0 2.58 3
08:00 0 J/kg 0.5 K 0 % 0 % 0 % 0 m²/s² 0 0 2.33 3
09:00 38 J/kg -0.2 K 0 % 0 % 0 % 0 m²/s² 0 0 0.16 3
10:00 60 J/kg -0.2 K 0 % 0 % 0 % 0 m²/s² 0 0 -0.11 3
11:00 96 J/kg -0.1 K 0 % 0 % 0 % 0 m²/s² 0 0 0.08 3
12:00 108 J/kg -0.2 K 0 % 0 % 0 % 0 m²/s² 0 0 0.07 61
13:00 119 J/kg -0.6 K 0 % 0 % 0 % 0 m²/s² 0 0 -0.3 3
14:00 124 J/kg -0.8 K 0 % 0 % 0 % 0 m²/s² 0 0 0.16 3
15:00 152 J/kg -0.7 K 0 % 0 % 0 % 0 m²/s² 0 0 0.77 3
16:00 200 J/kg -1.2 K 0 % 0 % 0 % 0 m²/s² 0 0 0.27 3
17:00 104 J/kg -0.7 K 0 % 0 % 0 % 0 m²/s² 0 0 1.13 61
18:00 218 J/kg -1.6 K 0 % 0 % 0 % 0 m²/s² 0 0 0.56 61
19:00 343 J/kg -2.6 K 0 % 0 % 0 % 0 m²/s² 0 0 -0.17 3
20:00 445 J/kg -2.8 K 0 % 0 % 0 % 0 m²/s² 0 0 -0.79 3
21:00 393 J/kg -2.1 K 0 % 0 % 0 % 0 m²/s² 0 0 -0.9 3
22:00 186 J/kg -2.9 K 0 % 0 % 0 % 0 m²/s² 0 0 -1.85 3
23:00 0 J/kg -2.6 K 0 % 0 % 0 % 0 m²/s² 0 0 -0.95 3
 06:52     21:01    Daglengte: 14:09 Woensdag 17 Aug
00:00 23 J/kg -3.0 K 0 % 0 % 0 % 0 m²/s² 0 0 -1.41 3
01:00 244 J/kg -3.3 K 0 % 0 % 0 % 0 m²/s² 0 0 -1.56 95
02:00 275 J/kg -3.0 K 0 % 0 % 0 % 0 m²/s² 0 0 -1.26 3
03:00 261 J/kg -2.2 K 0 % 0 % 0 % 0 m²/s² 0 0 -0.91 3
04:00 302 J/kg -2.3 K 0 % 0 % 0 % 0 m²/s² 0 0 -1.07 3
05:00 377 J/kg -2.5 K 0 % 0 % 0 % 0 m²/s² 0 0 -0.43 80
06:00 415 J/kg -2.2 K 0 % 0 % 0 % 0 m²/s² 0 0 -0.52 80
07:00 493 J/kg -2.2 K 0 % 0 % 0 % 0 m²/s² 0 0 -0.91 80
08:00 285 J/kg -1.8 K 0 % 0 % 0 % 0 m²/s² 0 0 -1.32 3
09:00 339 J/kg -1.2 K 0 % 0 % 0 % 0 m²/s² 0 0 -1.11 2
10:00 66 J/kg -0.2 K 0 % 0 % 0 % 0 m²/s² 0 0 -0.11 2
11:00 195 J/kg -0.6 K 0 % 0 % 0 % 0 m²/s² 0 0 -0.21 2
12:00 233 J/kg -1.4 K 0 % 0 % 0 % 0 m²/s² 0 0 -1.4 2
13:00 257 J/kg -1.2 K 0 % 0 % 0 % 0 m²/s² 0 0 -0.3 3
14:00 523 J/kg -2.0 K 0 % 0 % 0 % 0 m²/s² 0 0 -0.8 2
15:00 482 J/kg -2.1 K 0 % 0 % 0 % 0 m²/s² 0 0 -0.9 2
16:00 457 J/kg -1.7 K 0 % 0 % 0 % 0 m²/s² 0 0 -0.47 2
17:00 398 J/kg -1.4 K 0 % 0 % 0 % 0 m²/s² 0 0 -0.71 2
18:00 0 J/kg 0.8 K 0 % 0 % 0 % 0 m²/s² 0 0 1.19 3
19:00 0 J/kg 0.4 K 0 % 0 % 0 % 0 m²/s² 0 0 0.58 3
Temp Baro Wind Neerslag
  EWN Forecast EWN WRFDA DWD ICON FMI HIRLAM MET Norway GFS
 06:48     21:07    Daglengte: 14:19 Vandaag
20:00 21.6° 1006.7 hPa 2.4 m/s 0.0 mm 25.3° 1005.1 hPa 2.6 m/s 0.5 mm 20.5° 1006.9 hPa 1.9 m/s 1.1 mm 20.9° 1007.0 hPa 2.0 m/s 0.0 mm 21.0° 1006.0 hPa 3.2 m/s
23:00 19.6° 1006.9 hPa 2.4 m/s 0.0 mm 22.2° 1005.1 hPa 3.9 m/s 4.2 mm 18.8° 1007.0 hPa 1.7 m/s 0.0 mm 19.4° 1007.5 hPa 3.6 m/s 0.0 mm 17.6° 1006.6 hPa 2.9 m/s
 06:49     21:05    Daglengte: 14:16 Morgen
02:00 18.3° 1006.4 hPa 3.3 m/s 0.0 mm 18.6° 1005.3 hPa 5.0 m/s 6.4 mm 18.1° 1006.3 hPa 1.6 m/s 0.0 mm 18.1° 1007.2 hPa 3.4 m/s 0.0 mm 16.6° 1006.0 hPa 3.8 m/s
05:00 17.8° 1006.0 hPa 3.8 m/s 0.0 mm 16.1° 1005.4 hPa 4.4 m/s 6.4 mm 17.5° 1006.2 hPa 2.6 m/s 0.0 mm 18.0° 1006.3 hPa 4.3 m/s 0.0 mm 15.0° 1006.1 hPa 2.8 m/s
08:00 17.4° 1004.8 hPa 2.8 m/s 0.7 mm 16.0° 1005.8 hPa 4.0 m/s 6.4 mm 17.6° 1004.6 hPa 2.7 m/s 0.1 mm 17.4° 1005.7 hPa 4.3 m/s 0.0 mm 15.4° 1006.1 hPa 2.2 m/s
11:00 19.3° 1005.9 hPa 3.7 m/s 1.4 mm 21.3° 1005.5 hPa 3.8 m/s 6.5 mm 19.1° 1005.6 hPa 3.4 m/s 1.0 mm 18.2° 1006.3 hPa 5.0 m/s 0.0 mm 20.9° 1006.1 hPa 2.7 m/s
14:00 24.2° 1005.7 hPa 5.4 m/s 0.9 mm 25.4° 1004.8 hPa 4.4 m/s 6.5 mm 24.4° 1005.4 hPa 4.6 m/s 0.4 mm 24.8° 1005.8 hPa 5.7 m/s 0.0 mm 27.3° 1004.7 hPa 4.0 m/s
17:00 24.4° 1005.2 hPa 5.2 m/s 0.0 mm 28.3° 1003.4 hPa 3.9 m/s 6.5 mm 26.2° 1005.1 hPa 5.8 m/s 0.0 mm 23.9° 1005.1 hPa 4.5 m/s 0.0 mm 27.4° 1003.9 hPa 2.5 m/s
20:00 24.1° 1005.4 hPa 4.0 m/s 0.0 mm 28.2° 1003.0 hPa 3.0 m/s 6.5 mm 25.5° 1005.6 hPa 4.5 m/s 0.0 mm 23.6° 1004.9 hPa 3.8 m/s 0.0 mm 21.4° 1004.6 hPa 3.7 m/s
23:00 20.7° 1007.0 hPa 2.4 m/s 0.0 mm 23.2° 1004.5 hPa 3.9 m/s 7.0 mm 20.7° 1007.4 hPa 2.8 m/s 0.0 mm 20.6° 1006.3 hPa 2.4 m/s 0.0 mm 18.6° 1006.2 hPa 2.3 m/s
 06:51     21:03    Daglengte: 14:12 Dinsdag 16 Aug
02:00 18.8° 1007.5 hPa 2.2 m/s 0.0 mm 20.1° 1005.3 hPa 3.9 m/s 7.4 mm 18.6° 1007.9 hPa 2.2 m/s 0.0 mm 18.4° 1006.1 hPa 2.1 m/s 0.0 mm 17.1° 1006.9 hPa 2.7 m/s
05:00 17.7° 1007.4 hPa 2.0 m/s 0.0 mm 18.2° 1005.3 hPa 3.3 m/s 7.4 mm 17.5° 1008.0 hPa 1.6 m/s 0.0 mm 17.5° 1005.3 hPa 2.7 m/s 0.0 mm 16.8° 1006.3 hPa 1.8 m/s
08:00 17.9° 1007.7 hPa 1.8 m/s 0.0 mm 18.4° 1006.3 hPa 4.3 m/s 7.4 mm 17.4° 1008.3 hPa 1.3 m/s 0.0 mm 17.9° 1006.0 hPa 3.0 m/s 0.0 mm 17.1° 1007.7 hPa 2.6 m/s
11:00 21.2° 1008.1 hPa 2.0 m/s 0.0 mm 22.2° 1007.0 hPa 3.2 m/s 7.4 mm 20.8° 1008.9 hPa 1.5 m/s 0.0 mm 23.1° 1006.4 hPa 4.7 m/s 0.0 mm 21.6° 1008.2 hPa 2.0 m/s
14:00 24.2° 1008.3 hPa 1.9 m/s 0.0 mm 26.5° 1006.3 hPa 4.3 m/s 7.4 mm 23.7° 1008.9 hPa 1.4 m/s 0.1 mm 26.2° 1005.9 hPa 3.9 m/s 0.0 mm 26.0° 1008.0 hPa 3.4 m/s
17:00 23.1° 1008.0 hPa 1.9 m/s 1.0 mm 27.1° 1005.8 hPa 5.0 m/s 7.4 mm 22.9° 1008.3 hPa 1.9 m/s 0.5 mm 26.4° 1006.9 hPa 3.0 m/s
20:00 21.7° 1007.5 hPa 2.1 m/s 1.1 mm 23.3° 1005.6 hPa 5.4 m/s 7.4 mm 21.7° 1007.8 hPa 1.7 m/s 0.1 mm 20.6° 1007.9 hPa 4.3 m/s
23:00 19.0° 1008.5 hPa 2.1 m/s 1.1 mm 17.6° 1007.0 hPa 2.5 m/s 7.5 mm 20.1° 1008.7 hPa 1.3 m/s 0.1 mm 16.6° 1009.6 hPa 2.5 m/s
 06:52     21:01    Daglengte: 14:09 Woensdag 17 Aug
02:00 17.6° 1008.6 hPa 1.3 m/s 3.5 mm 16.6° 1006.9 hPa 1.3 m/s 7.9 mm 17.7° 1008.9 hPa 1.1 m/s 0.9 mm 15.9° 1009.1 hPa 2.3 m/s
05:00 17.4° 1008.1 hPa 1.5 m/s 3.7 mm 16.3° 1006.9 hPa 1.5 m/s 8.0 mm 17.6° 1008.1 hPa 1.7 m/s 0.5 mm 15.7° 1008.8 hPa 2.0 m/s
08:00 17.4° 1008.8 hPa 1.6 m/s 3.4 mm 15.6° 1007.0 hPa 2.7 m/s 8.1 mm 17.6° 1009.0 hPa 0.8 m/s 1.4 mm 15.9° 1009.7 hPa 1.8 m/s
11:00 20.3° 1009.4 hPa 2.2 m/s 1.5 mm 18.4° 1007.5 hPa 1.5 m/s 11.0 mm 21.4° 1009.5 hPa 2.1 m/s 0.0 mm 18.3° 1010.9 hPa 3.0 m/s
14:00 23.6° 1009.4 hPa 2.3 m/s 0.0 mm 20.1° 1008.5 hPa 2.6 m/s 49.5 mm 24.5° 1009.6 hPa 2.3 m/s 0.0 mm 21.7° 1011.0 hPa 3.5 m/s
17:00 25.0° 1008.9 hPa 0.9 m/s 0.0 mm 22.2° 1008.0 hPa 3.0 m/s 56.1 mm 25.8° 1009.2 hPa 0.4 m/s 0.1 mm 21.2° 1010.6 hPa 2.6 m/s
20:00 22.7° 1009.5 hPa 2.0 m/s 0.0 mm 19.3° 1009.1 hPa 4.5 m/s 57.2 mm 23.6° 1009.5 hPa 1.4 m/s 0.0 mm 20.3° 1010.3 hPa 1.4 m/s
23:00 17.4° 1011.8 hPa 2.1 m/s 19.6 mm 17.4° 1011.8 hPa 2.1 m/s 19.6 mm
 06:53     21:00    Daglengte: 14:07 Donderdag 18 Aug
02:00 16.2° 1012.0 hPa 1.4 m/s 19.7 mm 16.2° 1012.0 hPa 1.4 m/s 19.7 mm
05:00 15.4° 1012.4 hPa 1.2 m/s 20.2 mm 15.4° 1012.4 hPa 1.2 m/s 20.2 mm
08:00 15.9° 1013.3 hPa 1.4 m/s 20.3 mm 15.9° 1013.3 hPa 1.4 m/s 20.3 mm
11:00 21.2° 1014.3 hPa 1.6 m/s 20.4 mm 21.2° 1014.3 hPa 1.6 m/s 20.4 mm
14:00 25.0° 1013.7 hPa 2.1 m/s 22.5 mm 25.0° 1013.7 hPa 2.1 m/s 22.5 mm
17:00 25.4° 1013.7 hPa 2.5 m/s 22.8 mm 25.4° 1013.7 hPa 2.5 m/s 22.8 mm
20:00 22.4° 1014.4 hPa 3.3 m/s 22.8 mm 22.4° 1014.4 hPa 3.3 m/s 22.8 mm
23:00 20.1° 1016.4 hPa 3.4 m/s 22.8 mm 20.1° 1016.4 hPa 3.4 m/s 22.8 mm
 06:55     20:58    Daglengte: 14:03 Vrijdag 19 Aug
02:00 17.0° 1017.8 hPa 2.9 m/s 22.8 mm 17.0° 1017.8 hPa 2.9 m/s 22.8 mm
05:00 15.4° 1018.6 hPa 2.7 m/s 22.8 mm 15.4° 1018.6 hPa 2.7 m/s 22.8 mm
08:00 15.7° 1019.5 hPa 1.9 m/s 22.8 mm 15.7° 1019.5 hPa 1.9 m/s 22.8 mm
11:00 21.4° 1020.0 hPa 1.8 m/s 22.8 mm 21.4° 1020.0 hPa 1.8 m/s 22.8 mm
14:00 25.4° 1019.2 hPa 2.7 m/s 22.8 mm 25.4° 1019.2 hPa 2.7 m/s 22.8 mm
17:00 27.4° 1018.1 hPa 3.1 m/s 22.8 mm 27.4° 1018.1 hPa 3.1 m/s 22.8 mm
20:00 24.8° 1017.8 hPa 3.1 m/s 22.8 mm 24.8° 1017.8 hPa 3.1 m/s 22.8 mm
23:00 19.3° 1019.3 hPa 2.0 m/s 23.0 mm 19.3° 1019.3 hPa 2.0 m/s 23.0 mm
 06:56     20:56    Daglengte: 14:00 Zaterdag 20 Aug
02:00 17.9° 1019.4 hPa 2.5 m/s 23.0 mm 17.9° 1019.4 hPa 2.5 m/s 23.0 mm
05:00 16.7° 1019.8 hPa 2.2 m/s 23.0 mm 16.7° 1019.8 hPa 2.2 m/s 23.0 mm
08:00 16.9° 1020.7 hPa 1.8 m/s 23.1 mm 16.9° 1020.7 hPa 1.8 m/s 23.1 mm
11:00 22.0° 1021.3 hPa 3.7 m/s 23.1 mm 22.0° 1021.3 hPa 3.7 m/s 23.1 mm
14:00 23.7° 1021.0 hPa 4.4 m/s 23.1 mm 23.7° 1021.0 hPa 4.4 m/s 23.1 mm
20:00 24.1° 1020.0 hPa 2.7 m/s 23.1 mm 24.1° 1020.0 hPa 2.7 m/s 23.1 mm
23:00 18.7° 1022.6 hPa 4.1 m/s 23.1 mm 18.7° 1022.6 hPa 4.1 m/s 23.1 mm
 06:57     20:54    Daglengte: 13:57 Zondag 21 Aug
02:00 15.1° 1023.1 hPa 2.3 m/s 23.1 mm 15.1° 1023.1 hPa 2.3 m/s 23.1 mm
05:00 13.4° 1023.5 hPa 1.8 m/s 23.1 mm 13.4° 1023.5 hPa 1.8 m/s 23.1 mm
08:00 13.9° 1024.0 hPa 1.9 m/s 23.1 mm 13.9° 1024.0 hPa 1.9 m/s 23.1 mm
11:00 20.0° 1024.1 hPa 3.2 m/s 23.1 mm 20.0° 1024.1 hPa 3.2 m/s 23.1 mm
14:00 24.0° 1022.8 hPa 4.0 m/s 23.1 mm 24.0° 1022.8 hPa 4.0 m/s 23.1 mm
17:00 25.4° 1021.7 hPa 4.5 m/s 23.1 mm 25.4° 1021.7 hPa 4.5 m/s 23.1 mm
20:00 22.8° 1021.6 hPa 3.6 m/s 23.1 mm 22.8° 1021.6 hPa 3.6 m/s 23.1 mm
 06:59     20:52    Daglengte: 13:53 Maandag 22 Aug
02:00 15.6° 1022.7 hPa 2.0 m/s 23.1 mm 15.6° 1022.7 hPa 2.0 m/s 23.1 mm
08:00 15.0° 1022.3 hPa 0.2 m/s 23.1 mm 15.0° 1022.3 hPa 0.2 m/s 23.1 mm
14:00 24.2° 1020.6 hPa 2.5 m/s 23.1 mm 24.2° 1020.6 hPa 2.5 m/s 23.1 mm
20:00 23.8° 1018.6 hPa 1.0 m/s 23.1 mm 23.8° 1018.6 hPa 1.0 m/s 23.1 mm
 07:00     20:50    Daglengte: 13:50 Dinsdag 23 Aug
02:00 18.2° 1018.6 hPa 0.5 m/s 23.1 mm 18.2° 1018.6 hPa 0.5 m/s 23.1 mm
08:00 17.8° 1018.4 hPa 1.4 m/s 23.1 mm 17.8° 1018.4 hPa 1.4 m/s 23.1 mm
14:00 26.7° 1017.5 hPa 3.5 m/s 23.2 mm 26.7° 1017.5 hPa 3.5 m/s 23.2 mm
20:00 23.0° 1018.0 hPa 3.3 m/s 23.2 mm 23.0° 1018.0 hPa 3.3 m/s 23.2 mm
 07:01     20:48    Daglengte: 13:47 Woensdag 24 Aug
02:00 16.7° 1020.2 hPa 2.7 m/s 23.2 mm 16.7° 1020.2 hPa 2.7 m/s 23.2 mm
08:00 15.8° 1021.2 hPa 2.2 m/s 23.2 mm 15.8° 1021.2 hPa 2.2 m/s 23.2 mm
14:00 29.2° 1015.9 hPa 1.1 m/s 0.0 mm
20:00 27.2° 1014.9 hPa 1.2 m/s 0.1 mm
 07:03     20:47    Daglengte: 13:44 Donderdag 25 Aug
02:00 19.6° 1016.4 hPa 1.4 m/s 0.2 mm
08:00 17.6° 1016.8 hPa 0.9 m/s 0.0 mm
14:00 30.4° 1016.1 hPa 0.8 m/s 0.1 mm
20:00 28.0° 1015.2 hPa 1.3 m/s 0.2 mm
 07:04     20:45    Daglengte: 13:41 Vrijdag 26 Aug
02:00 20.2° 1016.9 hPa 2.2 m/s 0.3 mm
08:00 18.1° 1017.4 hPa 1.6 m/s 0.2 mm
14:00 29.3° 1016.8 hPa 1.4 m/s 0.7 mm
20:00 27.4° 1015.2 hPa 1.4 m/s 0.3 mm
 07:05     20:43    Daglengte: 13:38 Zaterdag 27 Aug
02:00 19.9° 1016.8 hPa 2.0 m/s 0.7 mm
08:00 17.4° 1017.0 hPa 1.6 m/s 0.3 mm
14:00 27.4° 1016.5 hPa 1.6 m/s 0.2 mm
20:00 25.8° 1015.3 hPa 1.8 m/s 0.2 mm
 07:07     20:41    Daglengte: 13:34 Zondag 28 Aug
02:00 18.7° 1017.0 hPa 1.8 m/s 0.4 mm
08:00 16.5° 1017.2 hPa 1.7 m/s 0.1 mm
14:00 27.5° 1016.8 hPa 1.0 m/s 0.1 mm
20:00 25.4° 1015.6 hPa 1.7 m/s 0.3 mm
 07:08     20:39    Daglengte: 13:31 Maandag 29 Aug
02:00 17.7° 1017.4 hPa 1.9 m/s 0.6 mm
08:00 16.2° 1017.6 hPa 1.4 m/s 0.3 mm
14:00 27.3° 1017.1 hPa 1.5 m/s 0.1 mm
20:00 25.1° 1015.9 hPa 1.8 m/s 0.4 mm
FMI Hirlam - 7.5 km EWN WRFDA - 12 km DWD ICON - 7 km GFS - 25 km Basiskaart






























































Updatetijd (Europe/Amsterdam) Resolutie Lengte Stap
FMI Hirlam 14:15, 20:15, 02:15, 08:15 7.5 km 49h 1h
EWN WRFDA 16:30, 22:30, 04:30, 10:30 12 km 73h 1h
DWD ICON 18:00, 00:00, 06:00, 12:00 7 km 75h 1h
GFS 14:15, 20:15, 02:15, 08:15 25 km 237h 3h
30+ mm
25-30 mm
20-25 mm
15-20 mm
10-15 mm
6-10 mm
4-6 mm
2-4 mm
1-2 mm
0.5-1 mm
0.2-0.5 mm
0.1-0.2 mm
30+ mm
25-30 mm
20-25 mm
15-20 mm
10-15 mm
6-10 mm
4-6 mm
2-4 mm
1-2 mm
0.5-1 mm
0.2-0.5 mm
0.1-0.2 mm
Sneeuwval
Natte sneeuw
Hagel
Vorst
30+ mm
25-30 mm
20-25 mm
15-20 mm
10-15 mm
6-10 mm
4-6 mm
2-4 mm
1-2 mm
0.5-1 mm
0.2-0.5 mm
0.1-0.2 mm
Sneeuwval
Natte sneeuw
Hagel
Vorst
Onweer
50 mm
40 mm
30 mm
26 mm
22 mm
18 mm
14 mm
10 mm
9 mm
8 mm
7 mm
6 mm
5 mm
4.5 mm
4 mm
3.5 mm
3 mm
2.5 mm
2 mm
1.5 mm
1 mm
0.8 mm
0.6 mm
0.4 mm
0.2 mm
0.05 mm
35°
30°
25°
20°
15°
10°
-5°
-10°
-15°
-20°
-25°
-30°
-35°
33> m/s
29 m/s
25 m/s
21 m/s
17 m/s
14 m/s
11 m/s
8 m/s
5 m/s
3 m/s
0 m/s
2600 J/kg
2400 J/kg
2200 J/kg
2000 J/kg
1800 J/kg
1600 J/kg
1400 J/kg
1200 J/kg
1000 J/kg
800 J/kg
600 J/kg
400 J/kg
200 J/kg
70 dBZ
65 dBZ
60 dBZ
55 dBZ
50 dBZ
45 dBZ
40 dBZ
35 dBZ
30 dBZ
25 dBZ
20 dBZ
15 dBZ
10 dBZ
5 dBZ